CW9414 Weather Reports


time (UTC)temp
F
wind
direction
speed
knots
gust
knots
rain 1hr
in
rain 24hr
in
rain mn
in
humidity
%
barometer
mb
20240420170450 81 153 0.0 1.7 0.00 0.00 0.00 75 1011.8
20240420165447 81 153 0.0 2.6 0.00 0.00 0.00 75 1011.8
20240420164448 80 153 0.0 1.7 0.00 0.00 0.00 76 1011.9
20240420163448 80 156 1.7 3.5 0.00 0.00 0.00 78 1011.9
20240420162447 79 157 0.0 3.5 0.00 0.00 0.00 79 1011.9
20240420161447 79 157 0.9 1.7 0.00 0.00 0.00 80 1012.1
20240420160448 78 157 0.0 2.6 0.00 0.00 0.00 81 1012.1
20240420155447 78 157 0.0 2.6 0.00 0.00 0.00 82 1012.2
20240420154448 78 157 1.7 5.2 0.00 0.00 0.00 83 1012.3
20240420153447 78 157 2.6 2.6 0.00 0.00 0.00 85 1012.3
20240420152447 77 158 0.9 2.6 0.00 0.00 0.00 86 1012.3
20240420151447 77 155 0.0 0.9 0.00 0.00 0.00 88 1012.3
20240420150447 76 155 0.0 1.7 0.00 0.00 0.00 89 1012.3
20240420145450 76 159 0.0 3.5 0.00 0.00 0.00 90 1012.3
20240420144447 76 166 0.0 1.7 0.00 0.00 0.00 91 1012.3
20240420143447 75 166 0.0 2.6 0.00 0.00 0.00 92 1012.3
20240420142447 75 166 0.0 1.7 0.00 0.00 0.00 92 1012.3
20240420141447 75 158 0.0 0.0 0.00 0.00 0.00 93 1012.3
20240420140447 74 158 0.0 0.0 0.00 0.00 0.00 93 1012.3
20240420135448 74 157 0.0 0.0 0.00 0.00 0.00 93 1012.5
20240420134447 74 157 0.0 0.9 0.00 0.00 0.00 93 1012.3
20240420133448 74 157 0.0 2.6 0.00 0.00 0.00 93 1012.3
20240420132447 73 157 0.0 0.9 0.00 0.00 0.00 93 1012.3
20240420131447 73 157 0.0 0.0 0.00 0.00 0.00 93 1012.3
20240420130447 73 157 0.0 0.0 0.00 0.00 0.00 93 1012.3
20240420125447 73 157 0.0 0.0 0.00 0.00 0.00 93 1012.3
20240420124446 72 157 0.0 0.0 0.00 0.00 0.00 93 1012.3
20240420123450 72 157 0.0 0.0 0.00 0.00 0.00 92 1012.3
20240420122448 71 157 0.0 0.0 0.00 0.00 0.00 92 1012.1
20240420121446 71 157 0.0 0.0 0.00 0.00 0.00 91 1012.1
20240420120450 71 157 0.0 0.0 0.00 0.00 0.00 91 1012.1
20240420115446 71 157 0.0 0.0 0.00 0.00 0.00 91 1011.9
20240420114446 71 157 0.0 0.0 0.00 0.00 0.00 90 1011.7
20240420113446 71 157 0.0 0.0 0.00 0.00 0.00 90 1011.7
20240420112448 71 157 0.0 0.0 0.00 0.00 0.00 90 1011.7
20240420111447 72 157 0.0 0.0 0.00 0.00 0.00 91 1011.9
20240420110448 72 157 0.0 0.0 0.00 0.00 0.00 91 1011.9
20240420105447 72 157 0.0 0.0 0.00 0.00 0.00 91 1011.8
20240420104450 72 157 0.0 0.0 0.00 0.00 0.00 91 1011.7
20240420103446 72 157 0.0 0.0 0.00 0.00 0.00 90 1011.7
20240420102446 72 157 0.0 0.0 0.00 0.00 0.00 90 1011.7
20240420101446 72 157 0.0 0.0 0.00 0.00 0.00 90 1011.7
20240420100446 72 157 0.0 0.0 0.00 0.00 0.00 90 1011.7
20240420095446 72 157 0.0 0.0 0.00 0.00 0.00 90 1012.1
20240420094446 72 157 0.0 0.0 0.00 0.00 0.00 89 1012.2
20240420093446 72 157 0.0 0.0 0.00 0.00 0.00 89 1012.2
20240420092449 72 157 0.0 0.0 0.00 0.00 0.00 89 1012.2
20240420091449 72 157 0.0 0.0 0.00 0.00 0.00 89 1012.3
20240420090446 72 157 0.0 0.0 0.00 0.00 0.00 88 1012.3
20240420085446 72 157 0.0 0.0 0.00 0.00 0.00 88 1012.5
20240420084446 73 157 0.0 0.0 0.00 0.00 0.00 87 1012.3
20240420083449 73 157 0.0 0.0 0.00 0.00 0.00 87 1012.3
20240420082449 73 157 0.0 0.0 0.00 0.00 0.00 87 1012.3
20240420081446 73 157 0.0 0.0 0.00 0.00 0.00 87 1012.2
20240420080448 73 157 0.0 0.0 0.00 0.00 0.00 87 1012.2
20240420075446 74 157 0.0 0.0 0.00 0.00 0.00 87 1012.3
20240420074446 74 157 0.0 0.0 0.00 0.00 0.00 87 1012.3
20240420073446 74 157 0.0 0.0 0.00 0.00 0.00 87 1012.3
20240420072447 74 157 0.0 0.0 0.00 0.00 0.00 87 1012.3
20240420071446 74 157 0.0 0.0 0.00 0.00 0.00 87 1012.3
20240420070446 74 157 0.0 0.0 0.00 0.00 0.00 87 1012.3
20240420065446 74 157 0.0 0.0 0.00 0.00 0.00 87 1012.3
20240420064446 74 157 0.0 0.9 0.00 0.00 0.00 86 1012.4
20240420063449 74 157 0.9 0.9 0.00 0.00 0.00 86 1012.4
20240420062447 74 159 0.0 1.7 0.00 0.00 0.00 86 1012.8
20240420061447 74 159 0.0 3.5 0.00 0.00 0.00 86 1012.6
20240420060449 74 159 0.0 1.7 0.00 0.00 0.00 86 1012.6
20240420055446 75 159 0.9 3.5 0.00 0.00 0.00 86 1012.7
20240420054447 75 161 0.0 1.7 0.00 0.00 0.00 86 1012.8
20240420053446 75 161 0.0 0.0 0.00 0.00 0.00 86 1012.8
20240420052446 75 161 0.0 0.0 0.00 0.00 0.00 86 1012.4
20240420051449 75 161 0.0 0.9 0.00 0.00 0.00 85 1012.4
20240420050446 75 161 0.0 2.6 0.00 0.00 0.01 85 1012.4
20240420045446 75 161 0.0 1.7 0.00 0.00 0.01 84 1012.3
20240420044446 75 161 0.0 1.7 0.00 0.00 0.01 84 1012.3
20240420043446 75 161 0.0 0.0 0.00 0.00 0.01 84 1012.3
20240420042446 75 161 0.0 0.0 0.00 0.00 0.01 83 1012.1
20240420041446 75 161 0.0 0.9 0.00 0.00 0.01 83 1011.8
20240420040450 75 161 0.0 0.9 0.00 0.00 0.01 83 1011.8
20240420035446 75 161 0.0 1.7 0.00 0.00 0.01 83 1011.8
20240420034446 75 161 0.9 2.6 0.00 0.00 0.01 82 1011.8
20240420033446 76 155 0.0 3.5 0.00 0.00 0.01 82 1011.8
20240420032447 76 142 0.0 0.0 0.00 0.00 0.01 81 1011.8
20240420031446 76 143 0.0 2.6 0.00 0.00 0.01 81 1011.8
20240420030446 76 143 0.0 5.2 0.00 0.00 0.01 80 1011.8
20240420025449 77 159 0.0 0.9 0.00 0.00 0.01 79 1011.6
20240420024450 77 142 0.0 0.9 0.00 0.00 0.01 79 1011.5
20240420023446 77 142 0.0 0.9 0.00 0.00 0.01 78 1011.5
20240420022446 77 142 0.0 2.6 0.00 0.00 0.01 77 1011.3
20240420021447 77 146 0.0 4.3 0.00 0.00 0.01 77 1011.0
20240420020447 78 157 0.0 4.3 0.00 0.00 0.01 76 1011.0
20240420015446 79 171 3.5 5.2 0.00 0.00 0.01 75 1010.8
20240420014450 79 148 0.0 5.2 0.00 0.00 0.01 75 1010.3
20240420013446 79 171 0.0 4.3 0.00 0.00 0.01 74 1010.3
20240420012446 80 179 0.9 5.2 0.00 0.00 0.01 74 1010.2
20240420011446 80 158 0.0 8.7 0.00 0.00 0.01 72 1010.6
20240420010447 80 135 0.9 3.5 0.00 0.00 0.01 72 1010.6
20240420005446 81 161 0.9 5.2 0.00 0.00 0.01 71 1010.8
20240420004449 81 159 1.7 3.5 0.00 0.00 0.01 71 1010.5
20240420003446 81 170 2.6 6.1 0.00 0.00 0.01 70 1010.6
20240420002450 82 147 1.7 8.7 0.00 0.00 0.01 70 1010.3
20240420001446 83 175 1.7 7.8 0.00 0.00 0.01 69 1009.9
20240420000446 83 105 2.6 3.5 0.00 0.00 0.01 68 1009.9
20240419235446 84 149 0.0 0.0 0.00 0.00 0.01 67 1010.3
20240419234446 85 149 0.0 0.0 0.00 0.00 0.01 67 1010.3
20240419233450 85 149 0.0 0.0 0.00 0.00 0.01 67 1010.3
20240419232447 85 149 0.0 0.0 0.00 0.00 0.01 66 1010.3
20240419231446 85 149 0.0 0.0 0.00 0.00 0.01 65 1010.4
20240419230446 85 149 0.0 0.0 0.00 0.00 0.01 65 1010.5
20240419225446 85 149 0.0 0.0 0.00 0.00 0.01 66 1010.4
20240419224446 85 149 0.0 0.0 0.00 0.00 0.01 68 1010.3
20240419223446 84 149 0.0 0.0 0.00 0.00 0.01 70 1010.3
20240419222446 84 149 0.0 0.0 0.00 0.00 0.01 69 1010.4
20240419221445 84 149 0.0 0.0 0.00 0.00 0.01 70 1010.4
20240419220446 84 149 0.0 0.0 0.00 0.00 0.01 70 1010.4
20240419215446 85 149 0.0 0.0 0.00 0.00 0.01 69 1010.5
20240419214447 85 149 0.0 0.0 0.00 0.00 0.01 66 1010.7
20240419213445 85 149 0.0 0.0 0.00 0.00 0.00 64 1010.7
20240419212446 86 149 0.0 0.0 0.00 0.00 0.00 63 1010.7
20240419211449 86 149 0.0 0.0 0.00 0.00 0.00 62 1010.8
20240419210446 86 149 0.0 0.0 0.00 0.00 0.00 62 1010.8
20240419205446 86 149 0.0 0.0 0.00 0.00 0.00 63 1010.9
20240419204447 86 149 0.0 0.0 0.00 0.00 0.00 63 1010.9
20240419203446 86 149 0.0 0.0 0.00 0.00 0.00 63 1010.9
20240419202447 85 149 0.0 0.0 0.00 0.00 0.00 63 1011.3
20240419201449 85 149 0.0 0.0 0.00 0.00 0.00 64 1011.4
20240419200447 85 149 0.0 0.0 0.00 0.00 0.00 64 1011.4
20240419195445 85 149 0.0 0.0 0.00 0.00 0.00 65 1011.5
20240419194445 84 149 0.0 2.6 0.00 0.00 0.00 66 1011.8
20240419193448 84 149 0.0 5.2 0.00 0.00 0.00 66 1011.8
20240419192450 84 152 2.6 4.3 0.00 0.00 0.00 65 1011.8
20240419191445 84 153 2.6 3.5 0.00 0.00 0.00 64 1011.9
20240419190448 85 153 0.0 4.3 0.00 0.00 0.00 63 1011.9
20240419185448 85 138 0.0 0.0 0.00 0.00 0.00 63 1011.8
20240419184445 85 138 0.0 1.7 0.00 0.00 0.00 64 1011.9
20240419183446 85 138 0.0 0.0 0.00 0.00 0.00 64 1011.9
20240419182445 86 138 0.0 2.6 0.00 0.00 0.00 63 1012.1
20240419181445 86 138 0.0 0.9 0.00 0.00 0.00 63 1012.4
20240419180446 86 138 0.0 0.9 0.00 0.00 0.00 66 1012.4
20240419175446 85 138 0.0 0.0 0.00 0.00 0.00 66 1012.4
20240419174445 85 138 0.0 0.0 0.00 0.00 0.00 65 1012.5
20240419173445 85 138 0.0 0.0 0.00 0.00 0.00 65 1012.5
20240419172446 85 138 0.0 3.5 0.00 0.00 0.00 65 1012.8
20240419171445 85 136 0.0 1.7 0.00 0.00 0.00 67 1012.9